Jean Pierre Lab — WDE9670 — position and weather

sailwx.info

Track history (hours):
 
Tides and Currents Weather Stations Pressure Air Temp Water Temp Dewpoint Dewpoint Depression Visibility Wind Speed Wind Dir Waves Ship Positions

Jean Pierre Lab

Owner: Laborde Marine Services LLC, Morgan City, LA. More information available from US FCC via Universal Licensing System and Coast Guard Vessel Documentation Center.

Last reported at 2017-Sep-08 01:01 UTC. Time now 2017-Sep-20 01:55 UTC.
Position N 29°34' W 090°56'.
Warning: this ship's position is 12 days out of date.

Length 78 m; draft 4.1 m.

Type: Cargo ship. MMSI: 366484000.

Date/timePositionNaut miles runAvg speedWind from/ knotsBaromVisibWave heightAir tempDewpointWater temp
2017-Sep-08 01:01N 29°34' W 090°56'0 5.8
2017-Sep-08 00:59N 29°34' W 090°56'5 7.3
2017-Sep-08 00:14N 29°32' W 090°50'2 7.8
2017-Sep-08 00:00N 29°32' W 090°48'3 6.7
2017-Sep-07 23:30N 29°34' W 090°45'1 2.9
2017-Sep-07 22:59N 29°34' W 090°43'1 1.6
2017-Sep-07 22:31N 29°34' W 090°42'0 0.0
2017-Sep-07 22:00N 29°34' W 090°42'0 0.0
2017-Sep-07 21:31N 29°34' W 090°42'0 0.0
2017-Sep-07 21:00N 29°34' W 090°42'0 0.0
2017-Sep-07 20:30N 29°34' W 090°42'0 0.0
2017-Sep-07 20:01N 29°34' W 090°42'0 0.0
2017-Sep-07 19:31N 29°34' W 090°42'0 0.0
2017-Sep-07 19:00N 29°34' W 090°42'0 0.0
2017-Sep-07 18:30N 29°34' W 090°42'0 0.0
2017-Sep-07 18:00N 29°34' W 090°42'0 0.0
2017-Sep-07 17:30N 29°34' W 090°42'0 0.0
2017-Sep-07 17:00N 29°34' W 090°42'0 0.0
2017-Sep-07 16:30N 29°34' W 090°42'0 0.0
2017-Sep-07 16:00N 29°34' W 090°42'0 0.0
2017-Sep-07 15:30N 29°34' W 090°42'0 0.0
2017-Sep-07 14:57N 29°34' W 090°42'0 0.0
2017-Sep-07 14:30N 29°34' W 090°42'0 0.0
2017-Sep-07 14:00N 29°34' W 090°42'0 0.0
2017-Sep-07 13:30N 29°34' W 090°42'0 0.0
2017-Sep-07 13:00N 29°34' W 090°42'0 0.0
2017-Sep-07 12:30N 29°34' W 090°42'0 0.0
2017-Sep-07 12:00N 29°34' W 090°42'0 0.0
2017-Sep-07 11:30N 29°34' W 090°42'0 0.0
2017-Sep-07 11:00N 29°34' W 090°42'0 0.0
2017-Sep-07 10:30N 29°34' W 090°42'0 0.0
2017-Sep-07 10:00N 29°34' W 090°42'0 0.0
2017-Sep-07 09:30N 29°34' W 090°42'0 0.0
2017-Sep-07 09:00N 29°34' W 090°42'0 0.0
2017-Sep-07 08:30N 29°34' W 090°42'0 0.0
2017-Sep-07 08:00N 29°34' W 090°42'0 0.0
2017-Sep-07 07:30N 29°34' W 090°42'0 0.0
2017-Sep-07 07:00N 29°34' W 090°42'0 0.0
2017-Sep-07 06:30N 29°34' W 090°42'0 0.0
2017-Sep-07 06:00N 29°34' W 090°42'0 0.0
2017-Sep-07 05:30N 29°34' W 090°42'0 0.0
2017-Sep-07 05:00N 29°34' W 090°42'0 0.0
2017-Sep-07 04:30N 29°34' W 090°42'0 0.0
2017-Sep-07 04:00N 29°34' W 090°42'0 0.0
2017-Sep-07 03:30N 29°34' W 090°42'0 0.0
2017-Sep-07 03:00N 29°34' W 090°42'0 0.0
2017-Sep-07 02:30N 29°34' W 090°42'0 0.0
2017-Sep-07 02:00N 29°34' W 090°42'0 0.0
2017-Sep-07 01:30N 29°34' W 090°42'0 0.0
2017-Sep-07 01:00N 29°34' W 090°42'0 0.0
2017-Sep-07 00:30N 29°34' W 090°42'0 0.0
2017-Sep-07 00:00N 29°34' W 090°42'0 0.0
2017-Sep-06 23:30N 29°34' W 090°42'0 0.0
2017-Sep-06 23:00N 29°34' W 090°42'0 0.0
2017-Sep-06 22:30N 29°34' W 090°42'0 0.0
2017-Sep-06 22:00N 29°34' W 090°42'0 0.0
2017-Sep-06 21:30N 29°34' W 090°42'0 0.0
2017-Sep-06 21:00N 29°34' W 090°42'0 0.0
2017-Sep-06 20:30N 29°34' W 090°42'0 0.0
2017-Sep-06 20:00N 29°34' W 090°42'0 0.0
2017-Sep-06 19:30N 29°34' W 090°42'0 0.0
2017-Sep-06 19:00N 29°34' W 090°42'0 0.0
2017-Sep-06 18:30N 29°34' W 090°42'0 0.0
2017-Sep-06 18:00N 29°34' W 090°42'0 0.0
2017-Sep-06 17:30N 29°34' W 090°42'0 0.1
2017-Sep-06 17:00N 29°34' W 090°42'0 0.0
2017-Sep-06 16:30N 29°34' W 090°42'0 0.1
2017-Sep-06 16:00N 29°34' W 090°42'0 0.0
2017-Sep-06 15:30N 29°34' W 090°42'0 0.0
2017-Sep-06 15:00N 29°34' W 090°42'0 0.0
2017-Sep-06 14:30N 29°34' W 090°42'0 0.0
2017-Sep-06 13:57N 29°34' W 090°42'0 0.0
2017-Sep-06 13:30N 29°34' W 090°42'0 0.0
2017-Sep-06 13:00N 29°34' W 090°42'0 0.0
2017-Sep-06 12:30N 29°34' W 090°42'0 0.0
2017-Sep-06 12:00N 29°34' W 090°42'0 0.0
2017-Sep-06 11:30N 29°34' W 090°42'0 0.0
2017-Sep-06 11:00N 29°34' W 090°42'0 0.0
2017-Sep-06 10:30N 29°34' W 090°42'0 0.0
2017-Sep-06 10:00N 29°34' W 090°42'0 0.0
2017-Sep-06 09:30N 29°34' W 090°42'0 0.0
2017-Sep-06 09:00N 29°34' W 090°42'0 0.0
2017-Sep-06 08:30N 29°34' W 090°42'0 0.0
2017-Sep-06 08:00N 29°34' W 090°42'0 0.0
2017-Sep-06 07:30N 29°34' W 090°42'0 0.0
2017-Sep-06 07:00N 29°34' W 090°42'0 0.0
2017-Sep-06 06:30N 29°34' W 090°42'0 0.0
2017-Sep-06 06:00N 29°34' W 090°42'0 0.0
2017-Sep-06 05:30N 29°34' W 090°42'0 0.0
2017-Sep-06 05:00N 29°34' W 090°42'0 0.0
2017-Sep-06 04:30N 29°34' W 090°42'0 0.0
2017-Sep-06 04:00N 29°34' W 090°42'0 0.0
2017-Sep-06 03:30N 29°34' W 090°42'0 0.0
2017-Sep-06 03:00N 29°34' W 090°42'0 0.0
2017-Sep-06 02:30N 29°34' W 090°42'0 0.0
2017-Sep-06 02:00N 29°34' W 090°42'0 0.0
2017-Sep-06 01:30N 29°34' W 090°42'0 0.0
2017-Sep-06 01:00N 29°34' W 090°42'0 0.0
2017-Sep-06 00:30N 29°34' W 090°42'0 0.0
2017-Sep-06 00:00N 29°34' W 090°42'0 0.0
2017-Sep-05 23:30N 29°34' W 090°42'0 0.0
2017-Sep-05 23:00N 29°34' W 090°42'0 0.0
2017-Sep-05 22:30N 29°34' W 090°42'0 0.0
2017-Sep-05 22:00N 29°34' W 090°42'0 0.0
2017-Sep-05 21:30N 29°34' W 090°42'0 0.0
2017-Sep-05 21:00N 29°34' W 090°42'0 0.1
2017-Sep-05 20:30N 29°34' W 090°42'0 0.1
2017-Sep-05 20:00N 29°34' W 090°42'0 0.0
2017-Sep-05 19:30N 29°34' W 090°42'0 0.0
2017-Sep-05 19:00N 29°34' W 090°42'0 0.0
2017-Sep-05 18:30N 29°34' W 090°42'0 0.0
2017-Sep-05 18:00N 29°34' W 090°42'0 0.0
2017-Sep-05 17:30N 29°34' W 090°42'0 0.0
2017-Sep-05 17:00N 29°34' W 090°42'0 0.0
2017-Sep-05 16:30N 29°34' W 090°42'0 0.0
2017-Sep-05 16:00N 29°34' W 090°42'0 0.0
2017-Sep-05 15:30N 29°34' W 090°42'0 0.0
2017-Sep-05 15:00N 29°34' W 090°42'0 0.0
2017-Sep-05 14:30N 29°34' W 090°42'0 0.0
2017-Sep-05 14:00N 29°34' W 090°42'0 0.0
2017-Sep-05 13:30N 29°34' W 090°42'0 0.0
2017-Sep-05 13:00N 29°34' W 090°42'0 0.0
2017-Sep-05 12:30N 29°34' W 090°42'0 0.0
2017-Sep-05 12:00N 29°34' W 090°42'0 0.0
2017-Sep-05 11:30N 29°34' W 090°42'0 0.0
2017-Sep-05 11:00N 29°34' W 090°42'0 0.0
2017-Sep-05 10:30N 29°34' W 090°42'0 0.0
2017-Sep-05 10:00N 29°34' W 090°42'0 0.0
2017-Sep-05 09:30N 29°34' W 090°42'0 0.0
2017-Sep-05 08:57N 29°34' W 090°42'0 0.0
2017-Sep-05 08:30N 29°34' W 090°42'0 0.0
2017-Sep-05 08:00N 29°34' W 090°42'0 0.0
2017-Sep-05 07:30N 29°34' W 090°42'0 0.0
2017-Sep-05 07:00N 29°34' W 090°42'0 0.0
2017-Sep-05 06:27N 29°34' W 090°42'0 0.0
2017-Sep-05 06:00N 29°34' W 090°42'0 0.0
2017-Sep-05 05:30N 29°34' W 090°42'0 0.0
2017-Sep-05 05:00N 29°34' W 090°42'0 0.0
2017-Sep-05 04:27N 29°34' W 090°42'0 0.0
2017-Sep-05 04:00N 29°34' W 090°42'0 0.0
2017-Sep-05 03:27N 29°34' W 090°42'0 0.0
2017-Sep-05 03:00N 29°34' W 090°42'0 0.0
2017-Sep-05 02:30N 29°34' W 090°42'0 0.0
2017-Sep-05 02:00N 29°34' W 090°42'0 0.0
2017-Sep-05 01:30N 29°34' W 090°42'0 0.0
2017-Sep-05 01:00N 29°34' W 090°42'0 0.0
2017-Sep-05 00:30N 29°34' W 090°42'0 0.0
2017-Sep-05 00:00N 29°34' W 090°42'0 0.0
2017-Sep-04 23:30N 29°34' W 090°42'0 0.0
2017-Sep-04 23:00N 29°34' W 090°42'0 0.0
2017-Sep-04 22:30N 29°34' W 090°42'0 0.0
2017-Sep-04 22:00N 29°34' W 090°42'0 0.0
2017-Sep-04 21:30N 29°34' W 090°42'0 0.0
2017-Sep-04 21:00N 29°34' W 090°42'0 0.0
2017-Sep-04 20:30N 29°34' W 090°42'0 0.0
2017-Sep-04 19:57N 29°34' W 090°42'0 0.0
2017-Sep-04 19:30N 29°34' W 090°42'0 0.0
2017-Sep-04 19:00N 29°34' W 090°42'0 0.0
2017-Sep-04 18:30N 29°34' W 090°42'0 0.0
2017-Sep-04 18:00N 29°34' W 090°42'0 0.0
2017-Sep-04 17:30N 29°34' W 090°42'0 0.0
2017-Sep-04 17:00N 29°34' W 090°42'0 0.0
2017-Sep-04 16:30N 29°34' W 090°42'0 0.0
2017-Sep-04 16:00N 29°34' W 090°42'0 0.0
2017-Sep-04 15:30N 29°34' W 090°42'0 0.0
2017-Sep-04 15:00N 29°34' W 090°42'0 0.0
2017-Sep-04 14:30N 29°34' W 090°42'0 0.0
2017-Sep-04 14:00N 29°34' W 090°42'0 0.0
2017-Sep-04 13:30N 29°34' W 090°42'0 0.0
2017-Sep-04 13:00N 29°34' W 090°42'0 0.0
2017-Sep-04 12:30N 29°34' W 090°42'0 0.0
2017-Sep-04 12:00N 29°34' W 090°42'0 0.0
2017-Sep-04 11:30N 29°34' W 090°42'0 0.0
2017-Sep-04 11:00N 29°34' W 090°42'0 0.0
2017-Sep-04 10:30N 29°34' W 090°42'0 0.0
2017-Sep-04 10:00N 29°34' W 090°42'0 0.0
2017-Sep-04 09:30N 29°34' W 090°42'0 0.0
2017-Sep-04 09:00N 29°34' W 090°42'0 0.0
2017-Sep-04 08:30N 29°34' W 090°42'0 0.0
2017-Sep-04 08:00N 29°34' W 090°42'0 0.0
2017-Sep-04 07:30N 29°34' W 090°42'0 0.0
2017-Sep-04 07:00N 29°34' W 090°42'0 0.0
2017-Sep-04 06:30N 29°34' W 090°42'0 0.0
2017-Sep-04 06:00N 29°34' W 090°42'0 0.0
2017-Sep-04 05:30N 29°34' W 090°42'0 0.0
2017-Sep-04 05:00N 29°34' W 090°42'0 0.0
2017-Sep-04 04:30N 29°34' W 090°42'0 0.0
2017-Sep-04 04:00N 29°34' W 090°42'0 0.0
2017-Sep-04 03:30N 29°34' W 090°42'0 0.0
2017-Sep-04 03:00N 29°34' W 090°42'0 0.0
2017-Sep-04 02:27N 29°34' W 090°42'0 0.0
2017-Sep-04 02:00N 29°34' W 090°42'0 0.0
2017-Sep-04 01:30N 29°34' W 090°42'0 0.0
2017-Sep-04 01:00N 29°34' W 090°42'0 0.0
2017-Sep-04 00:30N 29°34' W 090°42'0 0.0
2017-Sep-04 00:00N 29°34' W 090°42'0 0.0
2017-Sep-03 23:30N 29°34' W 090°42'0 0.0
2017-Sep-03 23:00N 29°34' W 090°42'0 0.0
2017-Sep-03 22:27N 29°34' W 090°42'0 0.0
2017-Sep-03 22:00N 29°34' W 090°42'0 0.0
2017-Sep-03 21:30N 29°34' W 090°42'0 0.0
2017-Sep-03 21:00N 29°34' W 090°42'0 0.0
2017-Sep-03 20:30N 29°34' W 090°42'0 0.0
2017-Sep-03 20:00N 29°34' W 090°42'0 0.0
2017-Sep-03 19:30N 29°34' W 090°42'0 0.0
2017-Sep-03 19:00N 29°34' W 090°42'0 0.0
2017-Sep-03 18:30N 29°34' W 090°42'0 0.0
2017-Sep-03 18:00N 29°34' W 090°42'0 0.0
2017-Sep-03 17:30N 29°34' W 090°42'0 0.0
2017-Sep-03 17:00N 29°34' W 090°42'0 0.0
2017-Sep-03 16:30N 29°34' W 090°42'0 0.0
2017-Sep-03 16:00N 29°34' W 090°42'0 0.0
2017-Sep-03 15:30N 29°34' W 090°42'0 0.0
2017-Sep-03 15:00N 29°34' W 090°42'0 0.0
2017-Sep-03 14:00N 29°34' W 090°42'0 0.0
2017-Sep-03 13:30N 29°34' W 090°42'0 0.0
2017-Sep-03 13:00N 29°34' W 090°42'0 0.0
2017-Sep-03 12:30N 29°34' W 090°42'0 0.0
2017-Sep-03 12:00N 29°34' W 090°42'0 0.0
2017-Sep-03 11:30N 29°34' W 090°42'0 0.0
2017-Sep-03 10:45N 29°34' W 090°42'0 0.0
2017-Sep-03 10:30N 29°34' W 090°42'0 0.0
2017-Sep-03 10:00N 29°34' W 090°42'0 0.0
2017-Sep-03 09:30N 29°34' W 090°42'0 0.0
2017-Sep-03 09:00N 29°34' W 090°42'0 0.0
2017-Sep-03 08:30N 29°34' W 090°42'0 0.0
2017-Sep-03 08:00N 29°34' W 090°42'0 0.0
2017-Sep-03 07:30N 29°34' W 090°42'0 0.0
2017-Sep-03 07:00N 29°34' W 090°42'0 0.0
2017-Sep-03 06:30N 29°34' W 090°42'0 0.0
2017-Sep-03 06:00N 29°34' W 090°42'0 0.0
2017-Sep-03 05:30N 29°34' W 090°42'0 0.0
2017-Sep-03 05:00N 29°34' W 090°42'0 0.0
2017-Sep-03 04:30N 29°34' W 090°42'0 0.0
2017-Sep-03 04:00N 29°34' W 090°42'0 0.0
2017-Sep-03 03:30N 29°34' W 090°42'0 0.0
2017-Sep-03 03:00N 29°34' W 090°42'0 0.0
2017-Sep-03 02:30N 29°34' W 090°42'0 0.0
2017-Sep-03 02:00N 29°34' W 090°42'0 0.0
2017-Sep-03 01:30N 29°34' W 090°42'0 0.0
2017-Sep-03 01:00N 29°34' W 090°42'0 0.0
2017-Sep-03 00:30N 29°34' W 090°42'0 0.0
2017-Sep-03 00:00N 29°34' W 090°42'0 0.0
2017-Sep-02 23:30N 29°34' W 090°42'0 0.0
2017-Sep-02 23:00N 29°34' W 090°42'0 0.0
2017-Sep-02 22:30N 29°34' W 090°42'0 0.0
2017-Sep-02 22:00N 29°34' W 090°42'0 0.0
2017-Sep-02 21:30N 29°34' W 090°42'0 0.0
2017-Sep-02 21:00N 29°34' W 090°42'0 0.0
2017-Sep-02 20:30N 29°34' W 090°42'0 0.0
2017-Sep-02 20:00N 29°34' W 090°42'0 0.0
2017-Sep-02 19:30N 29°34' W 090°42'0 0.0
2017-Sep-02 19:00N 29°34' W 090°42'0 0.0
2017-Sep-02 18:30N 29°34' W 090°42'0 0.0
2017-Sep-02 18:00N 29°34' W 090°42'0 0.0
2017-Sep-02 17:30N 29°34' W 090°42'0 0.0
2017-Sep-02 17:00N 29°34' W 090°42'0 0.0
2017-Sep-02 16:30N 29°34' W 090°42'0 0.0
2017-Sep-02 16:00N 29°34' W 090°42'0 0.0
2017-Sep-02 15:30N 29°34' W 090°42'0 0.0
2017-Sep-02 15:00N 29°34' W 090°42'0 0.0
2017-Sep-02 14:30N 29°34' W 090°42'0 0.0
2017-Sep-02 14:00N 29°34' W 090°42'0 0.0
2017-Sep-02 13:30N 29°34' W 090°42'0 0.0
2017-Sep-02 13:00N 29°34' W 090°42'0 0.0
2017-Sep-02 12:30N 29°34' W 090°42'0 0.0
2017-Sep-02 12:00N 29°34' W 090°42'0 0.0
2017-Sep-02 11:30N 29°34' W 090°42'0 0.0
2017-Sep-02 11:00N 29°34' W 090°42'0 0.0
2017-Sep-02 10:30N 29°34' W 090°42'0 0.0
2017-Sep-02 10:00N 29°34' W 090°42'0 0.0
2017-Sep-02 09:30N 29°34' W 090°42'0 0.0
2017-Sep-02 09:00N 29°34' W 090°42'0 0.0
2017-Sep-02 08:30N 29°34' W 090°42'0 0.0
2017-Sep-02 08:00N 29°34' W 090°42'0 0.0
2017-Sep-02 07:30N 29°34' W 090°42'0 0.0
2017-Sep-02 07:00N 29°34' W 090°42'0 0.0
2017-Sep-02 06:30N 29°34' W 090°42'0 0.0
2017-Sep-02 05:57N 29°34' W 090°42'0 0.0
2017-Sep-02 05:30N 29°34' W 090°42'0 0.0
2017-Sep-02 05:00N 29°34' W 090°42'0 0.0
2017-Sep-02 04:30N 29°34' W 090°42'0 0.0
2017-Sep-02 04:00N 29°34' W 090°42'0 0.0
2017-Sep-02 03:30N 29°34' W 090°42'0 0.0
2017-Sep-02 03:00N 29°34' W 090°42'0 0.0
2017-Sep-02 02:30N 29°34' W 090°42'0 0.0
2017-Sep-02 02:00N 29°34' W 090°42'0 0.0
2017-Sep-02 01:30N 29°34' W 090°42'0 0.0
2017-Sep-02 01:00N 29°34' W 090°42'0 0.0
2017-Sep-02 00:30N 29°34' W 090°42'0 0.0
2017-Sep-02 00:00N 29°34' W 090°42'0 0.0
2017-Sep-01 23:30N 29°34' W 090°42'0 0.0
2017-Sep-01 23:00N 29°34' W 090°42'0 0.0
2017-Sep-01 22:30N 29°34' W 090°42'0 0.0
2017-Sep-01 22:00N 29°34' W 090°42'0 0.3
2017-Sep-01 21:30N 29°34' W 090°42'0 0.0
2017-Sep-01 21:00N 29°34' W 090°42'0 0.0
2017-Sep-01 20:30N 29°34' W 090°42'0 0.0
2017-Sep-01 20:00N 29°34' W 090°42'0 0.0
2017-Sep-01 19:30N 29°34' W 090°42'0 0.0
2017-Sep-01 19:00N 29°34' W 090°42'0 0.0
2017-Sep-01 18:30N 29°34' W 090°42'0 0.0
2017-Sep-01 18:00N 29°34' W 090°42'0 0.0
2017-Sep-01 17:30N 29°34' W 090°42'0 0.0
2017-Sep-01 17:00N 29°34' W 090°42'0 0.0
2017-Sep-01 16:30N 29°34' W 090°42'0 0.0
2017-Sep-01 16:00N 29°34' W 090°42'0 0.0
2017-Sep-01 15:30N 29°34' W 090°42'0 0.0
2017-Sep-01 15:00N 29°34' W 090°42'0 0.0
2017-Sep-01 14:30N 29°34' W 090°42'0 0.0
2017-Sep-01 14:00N 29°34' W 090°42'0 0.0
2017-Sep-01 13:30N 29°34' W 090°42'0 0.0
2017-Sep-01 13:00N 29°34' W 090°42'0 0.0
2017-Sep-01 12:30N 29°34' W 090°42'0 0.0
2017-Sep-01 12:00N 29°34' W 090°42'0 0.0
2017-Sep-01 11:30N 29°34' W 090°42'0 0.0
2017-Sep-01 11:00N 29°34' W 090°42'0 0.0
2017-Sep-01 10:30N 29°34' W 090°42'0 0.0
2017-Sep-01 10:00N 29°34' W 090°42'0 0.0
2017-Sep-01 09:30N 29°34' W 090°42'0 0.0
2017-Sep-01 08:54N 29°34' W 090°42'0 0.0
2017-Sep-01 08:30N 29°34' W 090°42'0 0.0
2017-Sep-01 08:00N 29°34' W 090°42'0 0.0
2017-Sep-01 07:30N 29°34' W 090°42'0 0.0
2017-Sep-01 07:00N 29°34' W 090°42'0 0.0
2017-Sep-01 06:30N 29°34' W 090°42'0 0.0
2017-Sep-01 06:00N 29°34' W 090°42'0 0.0
2017-Sep-01 05:30N 29°34' W 090°42'0 0.0
2017-Sep-01 05:00N 29°34' W 090°42'0 0.0
2017-Sep-01 04:30N 29°34' W 090°42'0 0.0
2017-Sep-01 04:00N 29°34' W 090°42'0 0.0
2017-Sep-01 03:30N 29°34' W 090°42'0 0.0
2017-Sep-01 03:00N 29°34' W 090°42'0 0.0
2017-Sep-01 02:30N 29°34' W 090°42'0 0.0
2017-Sep-01 02:00N 29°34' W 090°42'0 0.0
2017-Sep-01 01:30N 29°34' W 090°42'0 0.0
2017-Sep-01 01:00N 29°34' W 090°42'0 0.0
2017-Sep-01 00:30N 29°34' W 090°42'0 0.0
2017-Sep-01 00:00N 29°34' W 090°42'0 0.0
2017-Aug-31 23:30N 29°34' W 090°42'0 0.0
2017-Aug-31 23:00N 29°34' W 090°42'0 0.0
2017-Aug-31 22:30N 29°34' W 090°42'0 0.0
2017-Aug-31 22:00N 29°34' W 090°42'0 0.0
2017-Aug-31 21:30N 29°34' W 090°42'0 0.0
2017-Aug-31 21:00N 29°34' W 090°42'0 0.0
2017-Aug-31 20:30N 29°34' W 090°42'0 0.0
2017-Aug-31 20:00N 29°34' W 090°42'0 0.3
2017-Aug-31 19:30N 29°34' W 090°42'0 0.0
2017-Aug-31 19:00N 29°34' W 090°42'0 0.0
2017-Aug-31 18:30N 29°34' W 090°42'0 0.0
2017-Aug-31 18:00N 29°34' W 090°42'0 0.0
2017-Aug-31 17:27N 29°34' W 090°42'0 0.0
2017-Aug-31 17:00N 29°34' W 090°42'0 0.0
2017-Aug-31 16:30N 29°34' W 090°42'0 0.0
2017-Aug-31 16:00N 29°34' W 090°42'0 0.0
2017-Aug-31 15:30N 29°34' W 090°42'0 0.0
2017-Aug-31 15:00N 29°34' W 090°42'0 0.0
2017-Aug-31 14:30N 29°34' W 090°42'0 0.0
2017-Aug-31 14:00N 29°34' W 090°42'0 0.0
2017-Aug-31 13:30N 29°34' W 090°42'0 0.0
2017-Aug-31 13:00N 29°34' W 090°42'0 0.0
2017-Aug-31 12:30N 29°34' W 090°42'0 0.0
2017-Aug-31 12:00N 29°34' W 090°42'0 0.0
2017-Aug-31 11:30N 29°34' W 090°42'0 0.0
2017-Aug-31 11:00N 29°34' W 090°42'0 0.0
2017-Aug-31 10:30N 29°34' W 090°42'0 0.0
2017-Aug-31 10:00N 29°34' W 090°42'0 0.0
2017-Aug-31 09:30N 29°34' W 090°42'0 0.0
2017-Aug-31 09:00N 29°34' W 090°42'0 0.0
2017-Aug-31 08:30N 29°34' W 090°42'0 0.0
2017-Aug-31 08:00N 29°34' W 090°42'0 0.0
2017-Aug-31 07:30N 29°34' W 090°42'0 0.0
2017-Aug-31 07:00N 29°34' W 090°42'0 0.0
2017-Aug-31 06:30N 29°34' W 090°42'0 0.0
2017-Aug-31 06:00N 29°34' W 090°42'0 0.0
2017-Aug-31 05:30N 29°34' W 090°42'0 0.0
2017-Aug-31 05:00N 29°34' W 090°42'0 0.0
2017-Aug-31 04:30N 29°34' W 090°42'0 0.0
2017-Aug-31 04:00N 29°34' W 090°42'0 0.0
2017-Aug-31 03:30N 29°34' W 090°42'0 0.0
2017-Aug-31 03:00N 29°34' W 090°42'0 0.0
2017-Aug-31 02:30N 29°34' W 090°42'0 0.0
2017-Aug-31 02:00N 29°34' W 090°42'0 0.0
2017-Aug-31 01:30N 29°34' W 090°42'0 0.0
2017-Aug-31 01:00N 29°34' W 090°42'0 0.0
2017-Aug-31 00:30N 29°34' W 090°42'0 0.0
2017-Aug-31 00:00N 29°34' W 090°42'0 0.0
2017-Aug-30 23:30N 29°34' W 090°42'0 0.0
2017-Aug-30 23:00N 29°34' W 090°42'0 0.0
2017-Aug-30 22:30N 29°34' W 090°42'0 0.0
2017-Aug-30 22:00N 29°34' W 090°42'0 0.0
2017-Aug-30 21:30N 29°34' W 090°42'0 0.0
2017-Aug-30 21:00N 29°34' W 090°42'0 0.0
2017-Aug-30 20:30N 29°34' W 090°42'0 0.0
2017-Aug-30 20:00N 29°34' W 090°42'0 0.0
2017-Aug-30 19:27N 29°34' W 090°42'0 0.0
2017-Aug-30 19:00N 29°34' W 090°42'0 0.0
2017-Aug-30 18:30N 29°34' W 090°42'0 0.0
2017-Aug-30 18:00N 29°34' W 090°42'0 0.0
2017-Aug-30 17:30N 29°34' W 090°42'0 0.0
2017-Aug-30 17:00N 29°34' W 090°42'0 0.0
2017-Aug-30 16:30N 29°34' W 090°42'0 0.0
2017-Aug-30 15:57N 29°34' W 090°42'0 0.0
2017-Aug-30 15:30N 29°34' W 090°42'0 0.0
2017-Aug-30 15:00N 29°34' W 090°42'0 0.0
2017-Aug-30 14:30N 29°34' W 090°42'0 0.0
2017-Aug-30 14:00N 29°34' W 090°42'0 0.0
2017-Aug-30 13:30N 29°34' W 090°42'0 0.0
2017-Aug-30 13:00N 29°34' W 090°42'0 0.3
2017-Aug-30 12:30N 29°34' W 090°42'0 0.0
2017-Aug-30 12:00N 29°34' W 090°42'0 0.0
2017-Aug-30 11:30N 29°34' W 090°42'0 0.0
2017-Aug-30 11:00N 29°34' W 090°42'0 0.0
2017-Aug-30 10:30N 29°34' W 090°42'0 0.0
2017-Aug-30 10:00N 29°34' W 090°42'0 0.0
2017-Aug-30 09:30N 29°34' W 090°42'0 0.0
2017-Aug-30 09:00N 29°34' W 090°42'0 0.0
2017-Aug-30 08:30N 29°34' W 090°42'0 0.0
2017-Aug-30 07:57N 29°34' W 090°42'0 0.0
2017-Aug-30 07:30N 29°34' W 090°42'0 0.0
2017-Aug-30 07:00N 29°34' W 090°42'0 0.0
2017-Aug-30 06:30N 29°34' W 090°42'0 0.0
2017-Aug-30 06:00N 29°34' W 090°42'0 0.0
2017-Aug-30 05:30N 29°34' W 090°42'0 0.0
2017-Aug-30 05:00N 29°34' W 090°42'0 0.0
2017-Aug-30 04:30N 29°34' W 090°42'0 0.0
2017-Aug-30 04:00N 29°34' W 090°42'0 0.0
2017-Aug-30 03:30N 29°34' W 090°42'0 0.0
2017-Aug-30 03:00N 29°34' W 090°42'0 0.0
2017-Aug-30 02:30N 29°34' W 090°42'0 0.0
2017-Aug-30 01:57N 29°34' W 090°42'0 0.0
2017-Aug-30 01:30N 29°34' W 090°42'0 0.0
2017-Aug-30 01:00N 29°34' W 090°42'0 0.0
2017-Aug-30 00:30N 29°34' W 090°42'0 0.0
2017-Aug-30 00:00N 29°34' W 090°42'0 0.0
2017-Aug-29 23:30N 29°34' W 090°42'0 0.0
2017-Aug-29 22:57N 29°34' W 090°42'0 0.0
2017-Aug-29 22:30N 29°34' W 090°42'0 0.0
2017-Aug-29 22:00N 29°34' W 090°42'0 0.0
2017-Aug-29 21:30N 29°34' W 090°42'0 0.0
2017-Aug-29 21:00N 29°34' W 090°42'0 0.0
2017-Aug-29 20:30N 29°34' W 090°42'0 0.0
2017-Aug-29 20:00N 29°34' W 090°42'0 0.0
2017-Aug-29 19:30N 29°34' W 090°42'0 0.0
2017-Aug-29 19:00N 29°34' W 090°42'0 0.0
2017-Aug-29 18:30N 29°34' W 090°42'0 0.0
2017-Aug-29 18:00N 29°34' W 090°42'0 0.0
2017-Aug-29 17:30N 29°34' W 090°42'0 0.0
2017-Aug-29 17:00N 29°34' W 090°42'0 0.0
2017-Aug-29 16:30N 29°34' W 090°42'0 0.0
2017-Aug-29 16:00N 29°34' W 090°42'0 0.0
2017-Aug-29 15:30N 29°34' W 090°42'0 0.0
2017-Aug-29 15:00N 29°34' W 090°42'0 0.0
2017-Aug-29 14:27N 29°34' W 090°42'0 0.0
2017-Aug-29 13:57N 29°34' W 090°42'0 0.0
2017-Aug-29 13:30N 29°34' W 090°42'0 0.0
2017-Aug-29 13:00N 29°34' W 090°42'0 0.0
2017-Aug-29 12:30N 29°34' W 090°42'0 0.0
2017-Aug-29 12:00N 29°34' W 090°42'0 0.0
2017-Aug-29 11:30N 29°34' W 090°42'0 0.0
2017-Aug-29 11:00N 29°34' W 090°42'0 0.0
2017-Aug-29 10:30N 29°34' W 090°42'0 0.0
2017-Aug-29 10:00N 29°34' W 090°42'0 0.0
2017-Aug-29 09:30N 29°34' W 090°42'0 0.0
2017-Aug-29 09:00N 29°34' W 090°42'0 0.0
2017-Aug-29 08:27N 29°34' W 090°42'0 0.0
2017-Aug-29 08:00N 29°34' W 090°42'0 0.0
2017-Aug-29 07:30N 29°34' W 090°42'0 0.0
2017-Aug-29 07:00N 29°34' W 090°42'0 0.0
2017-Aug-29 06:30N 29°34' W 090°42'0 0.0
2017-Aug-29 06:00N 29°34' W 090°42'0 0.0
2017-Aug-29 05:30N 29°34' W 090°42'0 0.0
2017-Aug-29 05:00N 29°34' W 090°42'0 0.0
2017-Aug-29 04:30N 29°34' W 090°42'0 0.0
2017-Aug-29 04:00N 29°34' W 090°42'0 0.0
2017-Aug-29 03:30N 29°34' W 090°42'0 0.0
2017-Aug-29 03:00N 29°34' W 090°42'0 0.0
2017-Aug-29 02:30N 29°34' W 090°42'0 0.0
2017-Aug-29 02:00N 29°34' W 090°42'0 0.0
2017-Aug-29 01:30N 29°34' W 090°42'  
Track history (hours):
 
Tides and Currents Weather Stations Pressure Air Temp Water Temp Dewpoint Dewpoint Depression Visibility Wind Speed Wind Dir Waves Ship Positions

Jean Pierre Lab

Owner: Laborde Marine Services LLC, Morgan City, LA. More information available from US FCC via Universal Licensing System and Coast Guard Vessel Documentation Center.

Last reported at 2017-Sep-08 01:01 UTC. Time now 2017-Sep-20 01:55 UTC.
Position N 29°34' W 090°56'.
Warning: this ship's position is 12 days out of date.

Length 78 m; draft 4.1 m.

Type: Cargo ship. MMSI: 366484000.

Date/timePositionNaut miles runAvg speedWind from/ knotsBaromVisibWave heightAir tempDewpointWater temp
2017-Sep-08 01:01N 29°34' W 090°56'0 5.8
2017-Sep-08 00:59N 29°34' W 090°56'5 7.3
2017-Sep-08 00:14N 29°32' W 090°50'2 7.8
2017-Sep-08 00:00N 29°32' W 090°48'3 6.7
2017-Sep-07 23:30N 29°34' W 090°45'1 2.9
2017-Sep-07 22:59N 29°34' W 090°43'1 1.6
2017-Sep-07 22:31N 29°34' W 090°42'0 0.0
2017-Sep-07 22:00N 29°34' W 090°42'0 0.0
2017-Sep-07 21:31N 29°34' W 090°42'0 0.0
2017-Sep-07 21:00N 29°34' W 090°42'0 0.0
2017-Sep-07 20:30N 29°34' W 090°42'0 0.0
2017-Sep-07 20:01N 29°34' W 090°42'0 0.0
2017-Sep-07 19:31N 29°34' W 090°42'0 0.0
2017-Sep-07 19:00N 29°34' W 090°42'0 0.0
2017-Sep-07 18:30N 29°34' W 090°42'0 0.0
2017-Sep-07 18:00N 29°34' W 090°42'0 0.0
2017-Sep-07 17:30N 29°34' W 090°42'0 0.0
2017-Sep-07 17:00N 29°34' W 090°42'0 0.0
2017-Sep-07 16:30N 29°34' W 090°42'0 0.0
2017-Sep-07 16:00N 29°34' W 090°42'0 0.0
2017-Sep-07 15:30N 29°34' W 090°42'0 0.0
2017-Sep-07 14:57N 29°34' W 090°42'0 0.0
2017-Sep-07 14:30N 29°34' W 090°42'0 0.0
2017-Sep-07 14:00N 29°34' W 090°42'0 0.0
2017-Sep-07 13:30N 29°34' W 090°42'0 0.0
2017-Sep-07 13:00N 29°34' W 090°42'0 0.0
2017-Sep-07 12:30N 29°34' W 090°42'0 0.0
2017-Sep-07 12:00N 29°34' W 090°42'0 0.0
2017-Sep-07 11:30N 29°34' W 090°42'0 0.0
2017-Sep-07 11:00N 29°34' W 090°42'0 0.0
2017-Sep-07 10:30N 29°34' W 090°42'0 0.0
2017-Sep-07 10:00N 29°34' W 090°42'0 0.0
2017-Sep-07 09:30N 29°34' W 090°42'0 0.0
2017-Sep-07 09:00N 29°34' W 090°42'0 0.0
2017-Sep-07 08:30N 29°34' W 090°42'0 0.0
2017-Sep-07 08:00N 29°34' W 090°42'0 0.0
2017-Sep-07 07:30N 29°34' W 090°42'0 0.0
2017-Sep-07 07:00N 29°34' W 090°42'0 0.0
2017-Sep-07 06:30N 29°34' W 090°42'0 0.0
2017-Sep-07 06:00N 29°34' W 090°42'0 0.0
2017-Sep-07 05:30N 29°34' W 090°42'0 0.0
2017-Sep-07 05:00N 29°34' W 090°42'0 0.0
2017-Sep-07 04:30N 29°34' W 090°42'0 0.0
2017-Sep-07 04:00N 29°34' W 090°42'0 0.0
2017-Sep-07 03:30N 29°34' W 090°42'0 0.0
2017-Sep-07 03:00N 29°34' W 090°42'0 0.0
2017-Sep-07 02:30N 29°34' W 090°42'0 0.0
2017-Sep-07 02:00N 29°34' W 090°42'0 0.0
2017-Sep-07 01:30N 29°34' W 090°42'0 0.0
2017-Sep-07 01:00N 29°34' W 090°42'0 0.0
2017-Sep-07 00:30N 29°34' W 090°42'0 0.0
2017-Sep-07 00:00N 29°34' W 090°42'0 0.0
2017-Sep-06 23:30N 29°34' W 090°42'0 0.0
2017-Sep-06 23:00N 29°34' W 090°42'0 0.0
2017-Sep-06 22:30N 29°34' W 090°42'0 0.0
2017-Sep-06 22:00N 29°34' W 090°42'0 0.0
2017-Sep-06 21:30N 29°34' W 090°42'0 0.0
2017-Sep-06 21:00N 29°34' W 090°42'0 0.0
2017-Sep-06 20:30N 29°34' W 090°42'0 0.0
2017-Sep-06 20:00N 29°34' W 090°42'0 0.0
2017-Sep-06 19:30N 29°34' W 090°42'0 0.0
2017-Sep-06 19:00N 29°34' W 090°42'0 0.0
2017-Sep-06 18:30N 29°34' W 090°42'0 0.0
2017-Sep-06 18:00N 29°34' W 090°42'0 0.0
2017-Sep-06 17:30N 29°34' W 090°42'0 0.1
2017-Sep-06 17:00N 29°34' W 090°42'0 0.0
2017-Sep-06 16:30N 29°34' W 090°42'0 0.1
2017-Sep-06 16:00N 29°34' W 090°42'0 0.0
2017-Sep-06 15:30N 29°34' W 090°42'0 0.0
2017-Sep-06 15:00N 29°34' W 090°42'0 0.0
2017-Sep-06 14:30N 29°34' W 090°42'0 0.0
2017-Sep-06 13:57N 29°34' W 090°42'0 0.0
2017-Sep-06 13:30N 29°34' W 090°42'0 0.0
2017-Sep-06 13:00N 29°34' W 090°42'0 0.0
2017-Sep-06 12:30N 29°34' W 090°42'0 0.0
2017-Sep-06 12:00N 29°34' W 090°42'0 0.0
2017-Sep-06 11:30N 29°34' W 090°42'0 0.0
2017-Sep-06 11:00N 29°34' W 090°42'0 0.0
2017-Sep-06 10:30N 29°34' W 090°42'0 0.0
2017-Sep-06 10:00N 29°34' W 090°42'0 0.0
2017-Sep-06 09:30N 29°34' W 090°42'0 0.0
2017-Sep-06 09:00N 29°34' W 090°42'0 0.0
2017-Sep-06 08:30N 29°34' W 090°42'0 0.0
2017-Sep-06 08:00N 29°34' W 090°42'0 0.0
2017-Sep-06 07:30N 29°34' W 090°42'0 0.0
2017-Sep-06 07:00N 29°34' W 090°42'0 0.0
2017-Sep-06 06:30N 29°34' W 090°42'0 0.0
2017-Sep-06 06:00N 29°34' W 090°42'0 0.0
2017-Sep-06 05:30N 29°34' W 090°42'0 0.0
2017-Sep-06 05:00N 29°34' W 090°42'0 0.0
2017-Sep-06 04:30N 29°34' W 090°42'0 0.0
2017-Sep-06 04:00N 29°34' W 090°42'0 0.0
2017-Sep-06 03:30N 29°34' W 090°42'0 0.0
2017-Sep-06 03:00N 29°34' W 090°42'0 0.0
2017-Sep-06 02:30N 29°34' W 090°42'0 0.0
2017-Sep-06 02:00N 29°34' W 090°42'0 0.0
2017-Sep-06 01:30N 29°34' W 090°42'0 0.0
2017-Sep-06 01:00N 29°34' W 090°42'0 0.0
2017-Sep-06 00:30N 29°34' W 090°42'0 0.0
2017-Sep-06 00:00N 29°34' W 090°42'0 0.0
2017-Sep-05 23:30N 29°34' W 090°42'0 0.0
2017-Sep-05 23:00N 29°34' W 090°42'0 0.0
2017-Sep-05 22:30N 29°34' W 090°42'0 0.0
2017-Sep-05 22:00N 29°34' W 090°42'0 0.0
2017-Sep-05 21:30N 29°34' W 090°42'0 0.0
2017-Sep-05 21:00N 29°34' W 090°42'0 0.1
2017-Sep-05 20:30N 29°34' W 090°42'0 0.1
2017-Sep-05 20:00N 29°34' W 090°42'0 0.0
2017-Sep-05 19:30N 29°34' W 090°42'0 0.0
2017-Sep-05 19:00N 29°34' W 090°42'0 0.0
2017-Sep-05 18:30N 29°34' W 090°42'0 0.0
2017-Sep-05 18:00N 29°34' W 090°42'0 0.0
2017-Sep-05 17:30N 29°34' W 090°42'0 0.0
2017-Sep-05 17:00N 29°34' W 090°42'0 0.0
2017-Sep-05 16:30N 29°34' W 090°42'0 0.0
2017-Sep-05 16:00N 29°34' W 090°42'0 0.0
2017-Sep-05 15:30N 29°34' W 090°42'0 0.0
2017-Sep-05 15:00N 29°34' W 090°42'0 0.0
2017-Sep-05 14:30N 29°34' W 090°42'0 0.0
2017-Sep-05 14:00N 29°34' W 090°42'0 0.0
2017-Sep-05 13:30N 29°34' W 090°42'0 0.0
2017-Sep-05 13:00N 29°34' W 090°42'0 0.0
2017-Sep-05 12:30N 29°34' W 090°42'0 0.0
2017-Sep-05 12:00N 29°34' W 090°42'0 0.0
2017-Sep-05 11:30N 29°34' W 090°42'0 0.0
2017-Sep-05 11:00N 29°34' W 090°42'0 0.0
2017-Sep-05 10:30N 29°34' W 090°42'0 0.0
2017-Sep-05 10:00N 29°34' W 090°42'0 0.0
2017-Sep-05 09:30N 29°34' W 090°42'0 0.0
2017-Sep-05 08:57N 29°34' W 090°42'0 0.0
2017-Sep-05 08:30N 29°34' W 090°42'0 0.0
2017-Sep-05 08:00N 29°34' W 090°42'0 0.0
2017-Sep-05 07:30N 29°34' W 090°42'0 0.0
2017-Sep-05 07:00N 29°34' W 090°42'0 0.0
2017-Sep-05 06:27N 29°34' W 090°42'0 0.0
2017-Sep-05 06:00N 29°34' W 090°42'0 0.0
2017-Sep-05 05:30N 29°34' W 090°42'0 0.0
2017-Sep-05 05:00N 29°34' W 090°42'0 0.0
2017-Sep-05 04:27N 29°34' W 090°42'0 0.0
2017-Sep-05 04:00N 29°34' W 090°42'0 0.0
2017-Sep-05 03:27N 29°34' W 090°42'0 0.0
2017-Sep-05 03:00N 29°34' W 090°42'0 0.0
2017-Sep-05 02:30N 29°34' W 090°42'0 0.0
2017-Sep-05 02:00N 29°34' W 090°42'0 0.0
2017-Sep-05 01:30N 29°34' W 090°42'0 0.0
2017-Sep-05 01:00N 29°34' W 090°42'0 0.0
2017-Sep-05 00:30N 29°34' W 090°42'0 0.0
2017-Sep-05 00:00N 29°34' W 090°42'0 0.0
2017-Sep-04 23:30N 29°34' W 090°42'0 0.0
2017-Sep-04 23:00N 29°34' W 090°42'0 0.0
2017-Sep-04 22:30N 29°34' W 090°42'0 0.0
2017-Sep-04 22:00N 29°34' W 090°42'0 0.0
2017-Sep-04 21:30N 29°34' W 090°42'0 0.0
2017-Sep-04 21:00N 29°34' W 090°42'0 0.0
2017-Sep-04 20:30N 29°34' W 090°42'0 0.0
2017-Sep-04 19:57N 29°34' W 090°42'0 0.0
2017-Sep-04 19:30N 29°34' W 090°42'0 0.0
2017-Sep-04 19:00N 29°34' W 090°42'0 0.0
2017-Sep-04 18:30N 29°34' W 090°42'0 0.0
2017-Sep-04 18:00N 29°34' W 090°42'0 0.0
2017-Sep-04 17:30N 29°34' W 090°42'0 0.0
2017-Sep-04 17:00N 29°34' W 090°42'0 0.0
2017-Sep-04 16:30N 29°34' W 090°42'0 0.0
2017-Sep-04 16:00N 29°34' W 090°42'0 0.0
2017-Sep-04 15:30N 29°34' W 090°42'0 0.0
2017-Sep-04 15:00N 29°34' W 090°42'0 0.0
2017-Sep-04 14:30N 29°34' W 090°42'0 0.0
2017-Sep-04 14:00N 29°34' W 090°42'0 0.0
2017-Sep-04 13:30N 29°34' W 090°42'0 0.0
2017-Sep-04 13:00N 29°34' W 090°42'0 0.0
2017-Sep-04 12:30N 29°34' W 090°42'0 0.0
2017-Sep-04 12:00N 29°34' W 090°42'0 0.0
2017-Sep-04 11:30N 29°34' W 090°42'0 0.0
2017-Sep-04 11:00N 29°34' W 090°42'0 0.0
2017-Sep-04 10:30N 29°34' W 090°42'0 0.0
2017-Sep-04 10:00N 29°34' W 090°42'0 0.0
2017-Sep-04 09:30N 29°34' W 090°42'0 0.0
2017-Sep-04 09:00N 29°34' W 090°42'0 0.0
2017-Sep-04 08:30N 29°34' W 090°42'0 0.0
2017-Sep-04 08:00N 29°34' W 090°42'0 0.0
2017-Sep-04 07:30N 29°34' W 090°42'0 0.0
2017-Sep-04 07:00N 29°34' W 090°42'0 0.0
2017-Sep-04 06:30N 29°34' W 090°42'0 0.0
2017-Sep-04 06:00N 29°34' W 090°42'0 0.0
2017-Sep-04 05:30N 29°34' W 090°42'0 0.0
2017-Sep-04 05:00N 29°34' W 090°42'0 0.0
2017-Sep-04 04:30N 29°34' W 090°42'0 0.0
2017-Sep-04 04:00N 29°34' W 090°42'0 0.0
2017-Sep-04 03:30N 29°34' W 090°42'0 0.0
2017-Sep-04 03:00N 29°34' W 090°42'0 0.0
2017-Sep-04 02:27N 29°34' W 090°42'0 0.0
2017-Sep-04 02:00N 29°34' W 090°42'0 0.0
2017-Sep-04 01:30N 29°34' W 090°42'0 0.0
2017-Sep-04 01:00N 29°34' W 090°42'0 0.0
2017-Sep-04 00:30N 29°34' W 090°42'0 0.0
2017-Sep-04 00:00N 29°34' W 090°42'0 0.0
2017-Sep-03 23:30N 29°34' W 090°42'0 0.0
2017-Sep-03 23:00N 29°34' W 090°42'0 0.0
2017-Sep-03 22:27N 29°34' W 090°42'0 0.0
2017-Sep-03 22:00N 29°34' W 090°42'0 0.0
2017-Sep-03 21:30N 29°34' W 090°42'0 0.0
2017-Sep-03 21:00N 29°34' W 090°42'0 0.0
2017-Sep-03 20:30N 29°34' W 090°42'0 0.0
2017-Sep-03 20:00N 29°34' W 090°42'0 0.0
2017-Sep-03 19:30N 29°34' W 090°42'0 0.0
2017-Sep-03 19:00N 29°34' W 090°42'0 0.0
2017-Sep-03 18:30N 29°34' W 090°42'0 0.0
2017-Sep-03 18:00N 29°34' W 090°42'0 0.0
2017-Sep-03 17:30N 29°34' W 090°42'0 0.0
2017-Sep-03 17:00N 29°34' W 090°42'0 0.0
2017-Sep-03 16:30N 29°34' W 090°42'0 0.0
2017-Sep-03 16:00N 29°34' W 090°42'0 0.0
2017-Sep-03 15:30N 29°34' W 090°42'0 0.0
2017-Sep-03 15:00N 29°34' W 090°42'0 0.0
2017-Sep-03 14:00N 29°34' W 090°42'0 0.0
2017-Sep-03 13:30N 29°34' W 090°42'0 0.0
2017-Sep-03 13:00N 29°34' W 090°42'0 0.0
2017-Sep-03 12:30N 29°34' W 090°42'0 0.0
2017-Sep-03 12:00N 29°34' W 090°42'0 0.0
2017-Sep-03 11:30N 29°34' W 090°42'0 0.0
2017-Sep-03 10:45N 29°34' W 090°42'0 0.0
2017-Sep-03 10:30N 29°34' W 090°42'0 0.0
2017-Sep-03 10:00N 29°34' W 090°42'0 0.0
2017-Sep-03 09:30N 29°34' W 090°42'0 0.0
2017-Sep-03 09:00N 29°34' W 090°42'0 0.0
2017-Sep-03 08:30N 29°34' W 090°42'0 0.0
2017-Sep-03 08:00N 29°34' W 090°42'0 0.0
2017-Sep-03 07:30N 29°34' W 090°42'0 0.0
2017-Sep-03 07:00N 29°34' W 090°42'0 0.0
2017-Sep-03 06:30N 29°34' W 090°42'0 0.0
2017-Sep-03 06:00N 29°34' W 090°42'0 0.0
2017-Sep-03 05:30N 29°34' W 090°42'0 0.0
2017-Sep-03 05:00N 29°34' W 090°42'0 0.0
2017-Sep-03 04:30N 29°34' W 090°42'0 0.0
2017-Sep-03 04:00N 29°34' W 090°42'0 0.0
2017-Sep-03 03:30N 29°34' W 090°42'0 0.0
2017-Sep-03 03:00N 29°34' W 090°42'0 0.0
2017-Sep-03 02:30N 29°34' W 090°42'0 0.0
2017-Sep-03 02:00N 29°34' W 090°42'0 0.0
2017-Sep-03 01:30N 29°34' W 090°42'0 0.0
2017-Sep-03 01:00N 29°34' W 090°42'0 0.0
2017-Sep-03 00:30N 29°34' W 090°42'0 0.0
2017-Sep-03 00:00N 29°34' W 090°42'0 0.0
2017-Sep-02 23:30N 29°34' W 090°42'0 0.0
2017-Sep-02 23:00N 29°34' W 090°42'0 0.0
2017-Sep-02 22:30N 29°34' W 090°42'0 0.0
2017-Sep-02 22:00N 29°34' W 090°42'0 0.0
2017-Sep-02 21:30N 29°34' W 090°42'0 0.0
2017-Sep-02 21:00N 29°34' W 090°42'0 0.0
2017-Sep-02 20:30N 29°34' W 090°42'0 0.0
2017-Sep-02 20:00N 29°34' W 090°42'0 0.0
2017-Sep-02 19:30N 29°34' W 090°42'0 0.0
2017-Sep-02 19:00N 29°34' W 090°42'0 0.0
2017-Sep-02 18:30N 29°34' W 090°42'0 0.0
2017-Sep-02 18:00N 29°34' W 090°42'0 0.0
2017-Sep-02 17:30N 29°34' W 090°42'0 0.0
2017-Sep-02 17:00N 29°34' W 090°42'0 0.0
2017-Sep-02 16:30N 29°34' W 090°42'0 0.0
2017-Sep-02 16:00N 29°34' W 090°42'0 0.0
2017-Sep-02 15:30N 29°34' W 090°42'0 0.0
2017-Sep-02 15:00N 29°34' W 090°42'0 0.0
2017-Sep-02 14:30N 29°34' W 090°42'0 0.0
2017-Sep-02 14:00N 29°34' W 090°42'0 0.0
2017-Sep-02 13:30N 29°34' W 090°42'0 0.0
2017-Sep-02 13:00N 29°34' W 090°42'0 0.0
2017-Sep-02 12:30N 29°34' W 090°42'0 0.0
2017-Sep-02 12:00N 29°34' W 090°42'0 0.0
2017-Sep-02 11:30N 29°34' W 090°42'0 0.0
2017-Sep-02 11:00N 29°34' W 090°42'0 0.0
2017-Sep-02 10:30N 29°34' W 090°42'0 0.0
2017-Sep-02 10:00N 29°34' W 090°42'0 0.0
2017-Sep-02 09:30N 29°34' W 090°42'0 0.0
2017-Sep-02 09:00N 29°34' W 090°42'0 0.0
2017-Sep-02 08:30N 29°34' W 090°42'0 0.0
2017-Sep-02 08:00N 29°34' W 090°42'0 0.0
2017-Sep-02 07:30N 29°34' W 090°42'0 0.0
2017-Sep-02 07:00N 29°34' W 090°42'0 0.0
2017-Sep-02 06:30N 29°34' W 090°42'0 0.0
2017-Sep-02 05:57N 29°34' W 090°42'0 0.0
2017-Sep-02 05:30N 29°34' W 090°42'0 0.0
2017-Sep-02 05:00N 29°34' W 090°42'0 0.0
2017-Sep-02 04:30N 29°34' W 090°42'0 0.0
2017-Sep-02 04:00N 29°34' W 090°42'0 0.0
2017-Sep-02 03:30N 29°34' W 090°42'0 0.0
2017-Sep-02 03:00N 29°34' W 090°42'0 0.0
2017-Sep-02 02:30N 29°34' W 090°42'0 0.0
2017-Sep-02 02:00N 29°34' W 090°42'0 0.0
2017-Sep-02 01:30N 29°34' W 090°42'0 0.0
2017-Sep-02 01:00N 29°34' W 090°42'0 0.0
2017-Sep-02 00:30N 29°34' W 090°42'0 0.0
2017-Sep-02 00:00N 29°34' W 090°42'0 0.0
2017-Sep-01 23:30N 29°34' W 090°42'0 0.0
2017-Sep-01 23:00N 29°34' W 090°42'0 0.0
2017-Sep-01 22:30N 29°34' W 090°42'0 0.0
2017-Sep-01 22:00N 29°34' W 090°42'0 0.3
2017-Sep-01 21:30N 29°34' W 090°42'0 0.0
2017-Sep-01 21:00N 29°34' W 090°42'0 0.0
2017-Sep-01 20:30N 29°34' W 090°42'0 0.0
2017-Sep-01 20:00N 29°34' W 090°42'0 0.0
2017-Sep-01 19:30N 29°34' W 090°42'0 0.0
2017-Sep-01 19:00N 29°34' W 090°42'0 0.0
2017-Sep-01 18:30N 29°34' W 090°42'0 0.0
2017-Sep-01 18:00N 29°34' W 090°42'0 0.0
2017-Sep-01 17:30N 29°34' W 090°42'0 0.0
2017-Sep-01 17:00N 29°34' W 090°42'0 0.0
2017-Sep-01 16:30N 29°34' W 090°42'0 0.0
2017-Sep-01 16:00N 29°34' W 090°42'0 0.0
2017-Sep-01 15:30N 29°34' W 090°42'0 0.0
2017-Sep-01 15:00N 29°34' W 090°42'0 0.0
2017-Sep-01 14:30N 29°34' W 090°42'0 0.0
2017-Sep-01 14:00N 29°34' W 090°42'0 0.0
2017-Sep-01 13:30N 29°34' W 090°42'0 0.0
2017-Sep-01 13:00N 29°34' W 090°42'0 0.0
2017-Sep-01 12:30N 29°34' W 090°42'0 0.0
2017-Sep-01 12:00N 29°34' W 090°42'0 0.0
2017-Sep-01 11:30N 29°34' W 090°42'0 0.0
2017-Sep-01 11:00N 29°34' W 090°42'0 0.0
2017-Sep-01 10:30N 29°34' W 090°42'0 0.0
2017-Sep-01 10:00N 29°34' W 090°42'0 0.0
2017-Sep-01 09:30N 29°34' W 090°42'0 0.0
2017-Sep-01 08:54N 29°34' W 090°42'0 0.0
2017-Sep-01 08:30N 29°34' W 090°42'0 0.0
2017-Sep-01 08:00N 29°34' W 090°42'0 0.0
2017-Sep-01 07:30N 29°34' W 090°42'0 0.0
2017-Sep-01 07:00N 29°34' W 090°42'0 0.0
2017-Sep-01 06:30N 29°34' W 090°42'0 0.0
2017-Sep-01 06:00N 29°34' W 090°42'0 0.0
2017-Sep-01 05:30N 29°34' W 090°42'0 0.0
2017-Sep-01 05:00N 29°34' W 090°42'0 0.0
2017-Sep-01 04:30N 29°34' W 090°42'0 0.0
2017-Sep-01 04:00N 29°34' W 090°42'0 0.0
2017-Sep-01 03:30N 29°34' W 090°42'0 0.0
2017-Sep-01 03:00N 29°34' W 090°42'0 0.0
2017-Sep-01 02:30N 29°34' W 090°42'0 0.0
2017-Sep-01 02:00N 29°34' W 090°42'0 0.0
2017-Sep-01 01:30N 29°34' W 090°42'0 0.0
2017-Sep-01 01:00N 29°34' W 090°42'0 0.0
2017-Sep-01 00:30N 29°34' W 090°42'0 0.0
2017-Sep-01 00:00N 29°34' W 090°42'0 0.0
2017-Aug-31 23:30N 29°34' W 090°42'0 0.0
2017-Aug-31 23:00N 29°34' W 090°42'0 0.0
2017-Aug-31 22:30N 29°34' W 090°42'0 0.0
2017-Aug-31 22:00N 29°34' W 090°42'0 0.0
2017-Aug-31 21:30N 29°34' W 090°42'0 0.0
2017-Aug-31 21:00N 29°34' W 090°42'0 0.0
2017-Aug-31 20:30N 29°34' W 090°42'0 0.0
2017-Aug-31 20:00N 29°34' W 090°42'0 0.3
2017-Aug-31 19:30N 29°34' W 090°42'0 0.0
2017-Aug-31 19:00N 29°34' W 090°42'0 0.0
2017-Aug-31 18:30N 29°34' W 090°42'0 0.0
2017-Aug-31 18:00N 29°34' W 090°42'0 0.0
2017-Aug-31 17:27N 29°34' W 090°42'0 0.0
2017-Aug-31 17:00N 29°34' W 090°42'0 0.0
2017-Aug-31 16:30N 29°34' W 090°42'0 0.0
2017-Aug-31 16:00N 29°34' W 090°42'0 0.0
2017-Aug-31 15:30N 29°34' W 090°42'0 0.0
2017-Aug-31 15:00N 29°34' W 090°42'0 0.0
2017-Aug-31 14:30N 29°34' W 090°42'0 0.0
2017-Aug-31 14:00N 29°34' W 090°42'0 0.0
2017-Aug-31 13:30N 29°34' W 090°42'0 0.0
2017-Aug-31 13:00N 29°34' W 090°42'0 0.0
2017-Aug-31 12:30N 29°34' W 090°42'0 0.0
2017-Aug-31 12:00N 29°34' W 090°42'0 0.0
2017-Aug-31 11:30N 29°34' W 090°42'0 0.0
2017-Aug-31 11:00N 29°34' W 090°42'0 0.0
2017-Aug-31 10:30N 29°34' W 090°42'0 0.0
2017-Aug-31 10:00N 29°34' W 090°42'0 0.0
2017-Aug-31 09:30N 29°34' W 090°42'0 0.0
2017-Aug-31 09:00N 29°34' W 090°42'0 0.0
2017-Aug-31 08:30N 29°34' W 090°42'0 0.0
2017-Aug-31 08:00N 29°34' W 090°42'0 0.0
2017-Aug-31 07:30N 29°34' W 090°42'0 0.0
2017-Aug-31 07:00N 29°34' W 090°42'0 0.0
2017-Aug-31 06:30N 29°34' W 090°42'0 0.0
2017-Aug-31 06:00N 29°34' W 090°42'0 0.0
2017-Aug-31 05:30N 29°34' W 090°42'0 0.0
2017-Aug-31 05:00N 29°34' W 090°42'0 0.0
2017-Aug-31 04:30N 29°34' W 090°42'0 0.0
2017-Aug-31 04:00N 29°34' W 090°42'0 0.0
2017-Aug-31 03:30N 29°34' W 090°42'0 0.0
2017-Aug-31 03:00N 29°34' W 090°42'0 0.0
2017-Aug-31 02:30N 29°34' W 090°42'0 0.0
2017-Aug-31 02:00N 29°34' W 090°42'0 0.0
2017-Aug-31 01:30N 29°34' W 090°42'0 0.0
2017-Aug-31 01:00N 29°34' W 090°42'0 0.0
2017-Aug-31 00:30N 29°34' W 090°42'0 0.0
2017-Aug-31 00:00N 29°34' W 090°42'0 0.0
2017-Aug-30 23:30N 29°34' W 090°42'0 0.0
2017-Aug-30 23:00N 29°34' W 090°42'0 0.0
2017-Aug-30 22:30N 29°34' W 090°42'0 0.0
2017-Aug-30 22:00N 29°34' W 090°42'0 0.0
2017-Aug-30 21:30N 29°34' W 090°42'0 0.0
2017-Aug-30 21:00N 29°34' W 090°42'0 0.0
2017-Aug-30 20:30N 29°34' W 090°42'0 0.0
2017-Aug-30 20:00N 29°34' W 090°42'0 0.0
2017-Aug-30 19:27N 29°34' W 090°42'0 0.0
2017-Aug-30 19:00N 29°34' W 090°42'0 0.0
2017-Aug-30 18:30N 29°34' W 090°42'0 0.0
2017-Aug-30 18:00N 29°34' W 090°42'0 0.0
2017-Aug-30 17:30N 29°34' W 090°42'0 0.0
2017-Aug-30 17:00N 29°34' W 090°42'0 0.0
2017-Aug-30 16:30N 29°34' W 090°42'0 0.0
2017-Aug-30 15:57N 29°34' W 090°42'0 0.0
2017-Aug-30 15:30N 29°34' W 090°42'0 0.0
2017-Aug-30 15:00N 29°34' W 090°42'0 0.0
2017-Aug-30 14:30N 29°34' W 090°42'0 0.0
2017-Aug-30 14:00N 29°34' W 090°42'0 0.0
2017-Aug-30 13:30N 29°34' W 090°42'0 0.0
2017-Aug-30 13:00N 29°34' W 090°42'0 0.3
2017-Aug-30 12:30N 29°34' W 090°42'0 0.0
2017-Aug-30 12:00N 29°34' W 090°42'0 0.0
2017-Aug-30 11:30N 29°34' W 090°42'0 0.0
2017-Aug-30 11:00N 29°34' W 090°42'0 0.0
2017-Aug-30 10:30N 29°34' W 090°42'0 0.0
2017-Aug-30 10:00N 29°34' W 090°42'0 0.0
2017-Aug-30 09:30N 29°34' W 090°42'0 0.0
2017-Aug-30 09:00N 29°34' W 090°42'0 0.0
2017-Aug-30 08:30N 29°34' W 090°42'0 0.0
2017-Aug-30 07:57N 29°34' W 090°42'0 0.0
2017-Aug-30 07:30N 29°34' W 090°42'0 0.0
2017-Aug-30 07:00N 29°34' W 090°42'0 0.0
2017-Aug-30 06:30N 29°34' W 090°42'0 0.0
2017-Aug-30 06:00N 29°34' W 090°42'0 0.0
2017-Aug-30 05:30N 29°34' W 090°42'0 0.0
2017-Aug-30 05:00N 29°34' W 090°42'0 0.0
2017-Aug-30 04:30N 29°34' W 090°42'0 0.0
2017-Aug-30 04:00N 29°34' W 090°42'0 0.0
2017-Aug-30 03:30N 29°34' W 090°42'0 0.0
2017-Aug-30 03:00N 29°34' W 090°42'0 0.0
2017-Aug-30 02:30N 29°34' W 090°42'0 0.0
2017-Aug-30 01:57N 29°34' W 090°42'0 0.0
2017-Aug-30 01:30N 29°34' W 090°42'0 0.0
2017-Aug-30 01:00N 29°34' W 090°42'0 0.0
2017-Aug-30 00:30N 29°34' W 090°42'0 0.0
2017-Aug-30 00:00N 29°34' W 090°42'0 0.0
2017-Aug-29 23:30N 29°34' W 090°42'0 0.0
2017-Aug-29 22:57N 29°34' W 090°42'0 0.0
2017-Aug-29 22:30N 29°34' W 090°42'0 0.0
2017-Aug-29 22:00N 29°34' W 090°42'0 0.0
2017-Aug-29 21:30N 29°34' W 090°42'0 0.0
2017-Aug-29 21:00N 29°34' W 090°42'0 0.0
2017-Aug-29 20:30N 29°34' W 090°42'0 0.0
2017-Aug-29 20:00N 29°34' W 090°42'0 0.0
2017-Aug-29 19:30N 29°34' W 090°42'0 0.0
2017-Aug-29 19:00N 29°34' W 090°42'0 0.0
2017-Aug-29 18:30N 29°34' W 090°42'0 0.0
2017-Aug-29 18:00N 29°34' W 090°42'0 0.0
2017-Aug-29 17:30N 29°34' W 090°42'0 0.0
2017-Aug-29 17:00N 29°34' W 090°42'0 0.0
2017-Aug-29 16:30N 29°34' W 090°42'0 0.0
2017-Aug-29 16:00N 29°34' W 090°42'0 0.0
2017-Aug-29 15:30N 29°34' W 090°42'0 0.0
2017-Aug-29 15:00N 29°34' W 090°42'0 0.0
2017-Aug-29 14:27N 29°34' W 090°42'0 0.0
2017-Aug-29 13:57N 29°34' W 090°42'0 0.0
2017-Aug-29 13:30N 29°34' W 090°42'0 0.0
2017-Aug-29 13:00N 29°34' W 090°42'0 0.0
2017-Aug-29 12:30N 29°34' W 090°42'0 0.0
2017-Aug-29 12:00N 29°34' W 090°42'0 0.0
2017-Aug-29 11:30N 29°34' W 090°42'0 0.0
2017-Aug-29 11:00N 29°34' W 090°42'0 0.0
2017-Aug-29 10:30N 29°34' W 090°42'0 0.0
2017-Aug-29 10:00N 29°34' W 090°42'0 0.0
2017-Aug-29 09:30N 29°34' W 090°42'0 0.0
2017-Aug-29 09:00N 29°34' W 090°42'0 0.0
2017-Aug-29 08:27N 29°34' W 090°42'0 0.0
2017-Aug-29 08:00N 29°34' W 090°42'0 0.0
2017-Aug-29 07:30N 29°34' W 090°42'0 0.0
2017-Aug-29 07:00N 29°34' W 090°42'0 0.0
2017-Aug-29 06:30N 29°34' W 090°42'0 0.0
2017-Aug-29 06:00N 29°34' W 090°42'0 0.0
2017-Aug-29 05:30N 29°34' W 090°42'0 0.0
2017-Aug-29 05:00N 29°34' W 090°42'0 0.0
2017-Aug-29 04:30N 29°34' W 090°42'0 0.0
2017-Aug-29 04:00N 29°34' W 090°42'0 0.0
2017-Aug-29 03:30N 29°34' W 090°42'0 0.0
2017-Aug-29 03:00N 29°34' W 090°42'0 0.0
2017-Aug-29 02:30N 29°34' W 090°42'0 0.0
2017-Aug-29 02:00N 29°34' W 090°42'0 0.0
2017-Aug-29 01:30N 29°34' W 090°42'  

Dump ship's entire track history